{"data":{"norad_id":40111,"intl_designator":"2014-047C","name":"YAOGAN-20 01C","alt_names":[],"object_type":"PAYLOAD","status":"ACTIVE","operator":null,"country":"PRC","launch_date":"2014-08-09","launch_site_code":"JSC","launch_vehicle":null,"mission":null,"orbit_class":"UNKNOWN","rcs_meters":2.4378,"size_class":null,"mass_kg":null,"dimensions":null,"purposes":[],"wikipedia_slug":null,"has_3d_model":false,"image_url":null,"decayed_at":null,"tle_current":{"epoch":"2026-09-20T04:34:55.673760Z","epoch_age_seconds":64035,"freshness":"FRESH","line1":"1 40111U 14047C   26263.19092215 -.00000032  00000+0  61246-4 0  9999","line2":"2 40111  63.3761 134.7228 0398442  15.6303 345.6616 13.45456829595074","mean_motion":13.45456829,"eccentricity":0.0398442,"inclination_deg":63.3761,"raan_deg":134.7228,"arg_perigee_deg":15.6303,"mean_anomaly_deg":345.6616,"bstar":6.1246e-5,"rev_number":59507,"period_min":107.02684537788,"perigee_km":791.49788104221,"apogee_km":1386.5437394898,"semimajor_km":7467.157810266,"source":"CELESTRAK","updated_at":"2026-09-20T09:00:14.020063Z"}}}